Location: Newark
(49.3808°N, 3.1844°E)
Time: 18:24:46
(UTC+00:00)

Vanguard 2 Rocket - Pass Details

Date: 22 November 2019
Orbit: 554 x 3326 km, 32.9° (Epoch: 10 December)

Event Time Altitude Azimuth Distance (km) Brightness Sun altitude
Rises 04:06:26 0° 242° (WSW) 3,179 - -29.1°
Reaches altitude 10° 04:10:26 10° 209° (SSW) 2,643 - -28.5°
Exits shadow 04:12:16 12° 191° (SSW) 2,716 9.2 -28.2°
Maximum altitude 04:12:33 12° 189° (S) 2,744 9.2 -28.1°
Drops below altitude 10° 04:14:58 10° 170° (S) 3,146 9.7 -27.7°
Sets 04:21:13 0° 143° (SE) 4,848 11.1 -26.7°
